www.pogodaiklimat.ru

Погода и климат >> Архив погоды >> Россия >> Приморский край >> Владивосток


АРХИВ ПОГОДЫ в Владивостоке

Время (UTC), дата Ветер
(напр.,м/с)
 
Видим.   Явления Облачность Т
(С)
Тd
(С)
f
(%)
Тe
(С)
Тes
(С)
Комфортность P
(гПа)
Po
(гПа)
Тmin
(С)
Tmax
(С)
R
(мм)
R24
(мм)
S
(см)
12 13.05 Ю 10-12
{14}
10 км слаб. дождь {туман} 10/0 200 м
[As op]
+7.2 +6.8 97 +1 +1 холодно 1015.1 992.2
15 13.05 ЮВ 11-13
{16}
10 км {дождь} 10/10 200 м
[St]
+7.7 +7.3 97 +2 +2 прохладно 1014.5 991.6
18 13.05 ЮВ 7-10
{15}
10 км слаб. дождь 10/0 200 м
[As op]
+8.1 +7.7 97 +3 +3 по сезону 1013.8 991.0
21 13.05 ЮВ 6
{11}
4000 м {дождь} 10/10 300 м
[St]
+8.6 +8.2 97 +4 +4 по сезону 1013.8 991.0 +7.1 3
00 14.05 ЮВ 5
{10}
50 км {морось} 10/10 600 м
[Sc]
+9.3 +8.3 93 +6 +6 по сезону 1014.7 992.0
03 14.05 Ю 6
{11}
50 км 8/0
[Ac lent Cc]
+13.0 +9.9 81 +11 +15 тепло 1013.9 991.5
06 14.05 Ю 6 20 км 9/6 600 м
[Sc Ac cast Cc]
+10.7 +8.9 89 +7 +9 прохладно 1013.1 990.5
09 14.05 Ю 6
{12}
500 м туман ?/? +8.7 +8.5 99 +5 +5 прохладно 1012.9 990.2 +13.5 0.0
12 14.05 Ю 7 200 м туман ?/? +8.3 +8.3 100 +4 +4 по сезону 1014.0 991.2
15 14.05 Ю 7
{11}
200 м туман ?/? +8.3 +8.1 99 +4 +4 по сезону 1014.6 991.8
18 14.05 ЮВ 6 200 м слаб. морось {туман} ?/? +8.8 +8.6 99 +5 +5 по сезону 1014.1 991.4
21 14.05 ЮВ 3 200 м туман ?/? +9.2 +9.2 100 +7 +7 по сезону 1014.8 992.0 +8.0 0.5
00 15.05 Ю 4 200 м туман ?/? +9.3 +9.3 100 +6 +6 по сезону 1015.7 993.0
03 15.05 Ю 5 20 км {туман} 10/10 200 м
[St]
+11.0 +10.8 99 +8 +8 по сезону 1015.0 992.5
06 15.05 Ю 6 20 км {туман} 9/9 600 м
[Sc]
+11.8 +9.5 86 +9 +9 по сезону 1013.3 990.8
09 15.05 Ю 6
{11}
500 м туман ?/? +8.9 +8.7 99 +5 +5 прохладно 1012.4 989.7 +13.1
12 15.05 Ю 8-10
{10}
500 м туман ?/? +8.5 +8.3 99 +4 +4 прохладно 1012.7 990.0
15 15.05 Ю 7
{12}
500 м туман ?/? +8.0 +7.9 99 +3 +3 прохладно 1012.7 989.9
18 15.05 ЮВ 9-11
{12}
200 м слаб. морось {туман} туман ?/? +8.9 +8.9 100 +4 +4 по сезону 1011.5 988.8
21 15.05 Ю 9-11
{12}
200 м туман ?/? +8.9 +8.9 100 +4 +4 по сезону 1012.5 989.8 +7.8 0.8
00 16.05 ЮВ 10-13
{14}
200 м туман ?/? +9.1 +9.1 100 +4 +4 прохладно 1012.6 989.9
03 16.05 ЮВ 9-11
{13}
200 м туман ?/? +9.2 +8.7 97 +4 +4 прохладно 1012.4 989.3
06 16.05 ЮВ 9-13
{15}
200 м туман ?/? +9.3 +9.3 100 +5 +5 холодно 1010.9 988.3
09 16.05 Ю 9-12
{13}
50 м туман {дождь} ?/? +8.8 +8.8 100 +4 +4 прохладно 1010.6 987.9 +9.6 0.0
12 16.05 Ю 8-12
{13}
50 м морось {туман} туман ?/? +9.8 +9.8 100 +5 +5 по сезону 1012.6 990.0
15 16.05 ЮВ 10-13
{14}
50 м морось {туман} туман ?/? +11.1 +11.0 99 +7 +7 по сезону 1012.0 989.5
18 16.05 ЮВ 12-14
{15}
50 м слаб. морось {туман} туман ?/? +10.4 +10.4 100 +5 +5 по сезону 1011.9 989.3
21 16.05 ЮВ 10-13
{16}
50 м слаб. морось {туман} туман ?/? +10.9 +10.8 99 +7 +7 по сезону 1012.4 989.8 +8.8 1
00 17.05 Ю 14-19
{19}
50 м слаб. морось {туман} туман ?/? +10.3 +10.3 100 +5 +5 по сезону 1012.7 990.1
03 17.05 Ю 11-14
{19}
50 м туман ?/? +10.5 +10.4 99 +6 +6 прохладно 1012.9 990.3
06 17.05 Ю 10-14
{17}
200 м туман ?/? +11.1 +11.1 100 +7 +7 прохладно 1011.9 989.4
09 17.05 Ю 7
{14}
200 м туман ?/? +10.5 +10.4 99 +7 +7 по сезону 1012.3 989.7 +11.7 0.5
12 17.05 Ю 10-15
{15}
200 м туман ?/? +10.0 +1.0 54 +6 +6 по сезону 1012.5 989.8
15 17.05 Ю 6-10
{15}
200 м слаб. морось {туман} туман ?/? +9.9 +9.8 99 +6 +6 по сезону 1014.2 991.5
18 17.05 Ю 9-12
{12}
200 м слаб. морось {туман} туман ?/? +9.7 +9.7 100 +5 +5 по сезону 1013.8 991.2
21 17.05 ЮВ 7
{12}
200 м слаб. морось {туман} туман ?/? +10.3 +10.2 99 +6 +6 по сезону 1015.0 992.4 +9.1 1
00 18.05 ЮВ 10-14
{14}
50 м слаб. морось {туман} туман ?/? +11.5 +11.4 99 +7 +7 по сезону 1014.7 992.2
03 18.05 Ю 8-10
{14}
50 м слаб. морось {туман} туман ?/? +12.2 +12.1 99 +9 +9 по сезону 1015.7 993.2
06 18.05 ЮВ 9-12
{12}
20 км в посл. час туман 10/10 600 м
[Sc]
+13.5 +13.3 99 +10 +10 по сезону 1014.0 991.7
09 18.05 Ю 10-13
{15}
20 км 9/9 600 м
[Sc]
+12.2 +11.5 95 +8 +8 по сезону 1013.3 990.9 +14.8 0.5
12 18.05 Ю 8-10
{14}
200 м туман ?/? +11.5 +11.5 100 +8 +8 по сезону 1014.7 992.1
15 18.05 ЮВ 8-10
{13}
200 м туман ?/? +10.9 +10.9 100 +7 +7 по сезону 1015.3 992.8
18 18.05 ЮВ 7
{11}
200 м туман ?/? +11.4 +11.4 100 +8 +8 по сезону 1014.6 992.1
21 18.05 ЮВ 9-12
{12}
200 м слаб. морось {туман} туман ?/? +11.4 +11.4 100 +7 +7 по сезону 1014.5 992.0 +10.8 0.4
00 19.05 ЮВ 10-13
{14}
50 м слаб. морось {туман} туман ?/? +11.9 +11.9 100 +8 +8 по сезону 1014.1 991.6
03 19.05 Ю 8-11
{14}
50 м туман ?/? +12.0 +12.0 100 +9 +9 по сезону 1014.0 991.6
06 19.05 ЮВ 11-13
{14}
200 м туман ?/? +12.2 +12.2 100 +8 +8 прохладно 1011.1 988.7
09 19.05 ЮВ 12-17
{18}
10 км слаб. дождь {туман} 10/0 200 м
[As op]
+11.7 +11.4 98 +7 +7 по сезону 1009.4 987.0 +13.2 0.7
12 19.05 ЮВ 15-19
{19}
200 м туман {дождь} ?/? +11.3 +11.3 100 +6 +6 по сезону 1008.0 985.6
15 19.05 ЮВ 14-19
{19}
200 м дождь {туман} туман ?/? +11.6 +11.6 100 +7 +7 по сезону 1005.3 983.0
18 19.05 ЮВ 16-21
{22}
200 м дождь {туман} туман ?/? +11.6 +11.6 100 +7 +7 по сезону 999.4 977.2
21 19.05 Ю 18-26
{28}
200 м сильн. дождь {туман} туман ?/? +11.9 +11.8 99 +7 +7 по сезону 994.9 972.9 +11.1 41
00 20.05 Ю 16-25
{26}
50 м туман {дождь} ?/? +12.5 +12.5 100 +8 +8 по сезону 993.0 971.0
03 20.05 Ю 10-16
{25}
200 м слаб. дождь {туман} туман ?/? +11.9 +11.9 100 +8 +8 по сезону 993.4 971.4
06 20.05 ЮВ 8-10
{16}
200 м туман {дождь} ?/? +10.7 +10.7 100 +7 +7 прохладно 993.5 971.3
09 20.05 ЮВ 7-10
{11}
20 км {туман} 10/4 600 м
[Sc diur, vesp Ac lent]
+11.2 +10.0 92 +8 +8 по сезону 993.4 971.3 +12.6 26

 

Местоположение метеостанции Владивосток (Приморский край, Россия): широта 43.12 долгота 131.90 высота над уровнем моря 188 м.

В архиве по умолчанию представлена погода в Владивостоке за последнюю неделю. Архивные данные за месяц целиком и за предыдущие месяцы, начиная с января 2011 года, Вы можете получить, выбрав интересующий диапазон дат из раскрывающегося списка и нажав кнопку "Ввод!".


*Определитесь, кто Вы:
робот инопланетянин человек

Внимание! Время в таблицах - всемирное. Для получения местного времени необходимо прибавить поправку, которая равна 10 ч.

Смотрите также архив погоды в соседних городах и на ближайших метеорологических станциях:

Погода на Мысе Назимова (Приморский край, Россия) (8 км)
Погода в Барабаше (Приморский край, Россия) (42 км)
Погода в Многоудобном (Приморский край, Россия) (60 км)
Погода в Находке (Приморский край, Россия) (81 км)
Погода в Гамове (Приморский край, Россия) (84 км)
Погода в Тимирязевском (Приморский край, Россия) (85 км)
Погода в Партизанске (Приморский край, Россия) (89 км)
Погода в Посьете (Приморский край, Россия) (104 км)
Погода в Полтавке (Приморский край, Россия) (112 км)
Погода в Анучино (Приморский край, Россия) (130 км)

Пояснения к столбцам:

Ветер - указаны скорость ветра в м/с - средняя за 10 мин, порывы в срок и между сроками (в фигурных скобках) и направление, откуда дует ветер: С - северный, СВ - северо-восточный, В - восточный, ЮВ - юго-восточный, Ю - южный, ЮЗ - юго-западный, З - западный, СЗ - северо-западный.
Видимость - горизонтальная дальность видимости в метрах или километрах. При видимости от 1 до 10 км при отсутствии осадков обычно наблюдается дымка, при ухудшении видимости до 1 км и менее - туман. В сухую погоду видимость может ухудшаться дымом, пылью или мглою.
Явления - указаны атмосферные явления, наблюдавшиеся в срок или в последний час перед сроком; фигурными скобками обозначены явления, наблюдавшиеся между сроками (за 1-3 часа до срока); квадратными скобками обозначены град или гололедные отложения с указанием их диаметра в мм.
Облачность - указаны через наклонную черту общая и нижняя облачность в баллах и высота нижней границы облаков в метрах; квадратными скобками обозначены формы облаков: Ci - перистые, Cs - перисто-слоистые, Cc - перисто-кучевые, Ac - высококучевые, As - высокослоистые, Sc - слоисто-кучевые, Ns - слоисто-дождевые, Cu - кучевые, Cb - кучево-дождевые. Подробнее классификацию облаков см. в Атласе облаков (PDF).
T - Температура воздуха - температура, измеренная на высоте 2 м над землей.
Td - Температура точки росы - температура, при понижении до которой содержащийся в воздухе водяной пар достигнет насыщения.
f - Относительная влажность воздуха - влажноcть воздуха, измеренная на высоте 2 м над землей.
Te - Эффективная температура - температура, которую ощущает одетый по сезону человек в тени. Характеристика душности погоды. При расчете учитывается влияние влажности воздуха и скорости ветра на теплоощущения человека.
Tes - Эффективная температура на солнце - температура, которую ощущает человек, с поправкой на солнечный нагрев. Характеристика знойности погоды. Зависит от высоты солнца над горизонтом, облачности и скорости ветра. Ночью, в пасмурную погоду, а также при ветре 12 м/с и более поправка равна нулю.
P - Атмосферное давление - приведенное к уровню моря атмосферное давление.
Po - Атмосферное давление - измеренное на уровне метеостанции атмосферное давление.
Tmin - Минимальная температура - минимум температуры воздуха на высоте 2 м над землей.
Tmax - Максимальная температура - максимум температуры воздуха на высоте 2 м над землей.
R - Количество осадков - Количество выпавших осадков за период времени, мм. При наведении курсора мыши на число - период времени, за который выпало указанное количество осадков.
R24 - Количество осадков - Количество выпавших осадков за 24 часа, мм.
S - Снежный покров - Высота снежного покрова, см. При наведении курсора мыши на число - состояние снежного покрова и степень покрытия местности в баллах.